CGLLZ CYXU-CYKF

Flight info

Callsign CGLLZ
Flight time 0h 29m
Altitude 3000
Route CYXU/33
Aircraft C172

Departure

Time 2026-04-19 16:22
Airport London International Airport (CYXU)

Arrival

Time 2026-04-19 16:51
Airport Region of Waterloo International Airport (CYKF)
Time Latitude Longitude Altitude Speed Heading
2026-04-19 16:22 43.09017 -80.98553 2956 ft 112 kts 68°
2026-04-19 16:22 43.09233 -80.97509 2956 ft 113 kts 67°
2026-04-19 16:22 43.09451 -80.96465 2944 ft 116 kts 68°
2026-04-19 16:22 43.09676 -80.95388 2950 ft 118 kts 65°
2026-04-19 16:23 43.09903 -80.94299 2946 ft 118 kts 65°
2026-04-19 16:23 43.10155 -80.93239 2949 ft 118 kts 64°
2026-04-19 16:23 43.10409 -80.92168 2949 ft 119 kts 65°
2026-04-19 16:23 43.10666 -80.91084 2955 ft 119 kts 62°
2026-04-19 16:24 43.10924 -80.90016 2953 ft 119 kts 62°
2026-04-19 16:24 43.11182 -80.88919 2948 ft 118 kts 64°
2026-04-19 16:24 43.11440 -80.87864 2947 ft 118 kts 61°
2026-04-19 16:24 43.11693 -80.86792 2945 ft 118 kts 63°
2026-04-19 16:25 43.11942 -80.85720 2945 ft 117 kts 63°
2026-04-19 16:25 43.12195 -80.84669 2944 ft 117 kts 63°
2026-04-19 16:25 43.12460 -80.83612 2946 ft 117 kts 62°
2026-04-19 16:25 43.12720 -80.82549 2939 ft 118 kts 64°
2026-04-19 16:26 43.12983 -80.81480 2943 ft 117 kts 62°
2026-04-19 16:26 43.13245 -80.80410 2944 ft 118 kts 62°
2026-04-19 16:26 43.13511 -80.79337 2942 ft 119 kts 60°
2026-04-19 16:26 43.13775 -80.78271 2941 ft 118 kts 62°
2026-04-19 16:27 43.14041 -80.77207 2935 ft 119 kts 62°
2026-04-19 16:27 43.14307 -80.76135 2946 ft 118 kts 60°
2026-04-19 16:27 43.14571 -80.75073 2940 ft 118 kts 62°
2026-04-19 16:27 43.14832 -80.74021 2941 ft 117 kts 63°
2026-04-19 16:28 43.15095 -80.72955 2949 ft 117 kts 62°
2026-04-19 16:28 43.15347 -80.71882 2951 ft 118 kts 62°
2026-04-19 16:28 43.15604 -80.70814 2950 ft 117 kts 62°
2026-04-19 16:28 43.15861 -80.69765 2976 ft 116 kts 62°
2026-04-19 16:29 43.16120 -80.68704 2977 ft 118 kts 62°
2026-04-19 16:29 43.16386 -80.67623 2989 ft 119 kts 62°
2026-04-19 16:29 43.16669 -80.66566 2968 ft 118 kts 60°
2026-04-19 16:29 43.16960 -80.65503 2976 ft 119 kts 60°
2026-04-19 16:30 43.17244 -80.64439 2978 ft 117 kts 61°
2026-04-19 16:30 43.17530 -80.63409 2970 ft 116 kts 59°
2026-04-19 16:30 43.17828 -80.62392 2967 ft 114 kts 58°
2026-04-19 16:30 43.18121 -80.61394 2972 ft 113 kts 59°
2026-04-19 16:31 43.18414 -80.60388 2973 ft 114 kts 56°
2026-04-19 16:31 43.18705 -80.59362 2971 ft 114 kts 58°
2026-04-19 16:31 43.18998 -80.58359 2973 ft 114 kts 57°
2026-04-19 16:31 43.19292 -80.57342 2980 ft 114 kts 58°
2026-04-19 16:32 43.19588 -80.56330 2981 ft 114 kts 58°
2026-04-19 16:32 43.19888 -80.55306 2976 ft 115 kts 57°
2026-04-19 16:32 43.20193 -80.54284 2978 ft 115 kts 58°
2026-04-19 16:32 43.20496 -80.53267 2973 ft 115 kts 58°
2026-04-19 16:33 43.20802 -80.52262 2975 ft 115 kts 57°
2026-04-19 16:33 43.21133 -80.51256 2977 ft 115 kts 54°
2026-04-19 16:33 43.21459 -80.50266 2970 ft 113 kts 56°
2026-04-19 16:33 43.21791 -80.49289 2963 ft 110 kts 54°
2026-04-19 16:34 43.22113 -80.48339 2921 ft 110 kts 53°
2026-04-19 16:34 43.22432 -80.47395 2882 ft 108 kts 53°
2026-04-19 16:34 43.22745 -80.46463 2856 ft 107 kts 54°
2026-04-19 16:34 43.23080 -80.45517 2694 ft 113 kts 54°
2026-04-19 16:35 43.23411 -80.44537 2549 ft 113 kts 55°
2026-04-19 16:35 43.23729 -80.43546 2450 ft 112 kts 57°
2026-04-19 16:35 43.24036 -80.42587 2343 ft 111 kts 58°
2026-04-19 16:35 43.24359 -80.41625 2254 ft 112 kts 57°
2026-04-19 16:36 43.24690 -80.40682 2211 ft 107 kts 56°
2026-04-19 16:36 43.25005 -80.39780 2148 ft 105 kts 56°
2026-04-19 16:36 43.25318 -80.38876 2087 ft 105 kts 54°
2026-04-19 16:36 43.25625 -80.37964 2039 ft 103 kts 56°
2026-04-19 16:37 43.25946 -80.37079 1983 ft 104 kts 58°
2026-04-19 16:37 43.26281 -80.36222 1917 ft 100 kts 47°
2026-04-19 16:37 43.26700 -80.35481 1876 ft 96 kts 34°
2026-04-19 16:37 43.27195 -80.34863 1830 ft 94 kts 27°
2026-04-19 16:38 43.27747 -80.34448 1785 ft 86 kts
2026-04-19 16:38 43.28334 -80.34270 1736 ft 85 kts 358°
2026-04-19 16:38 43.28921 -80.34180 1677 ft 83 kts 354°
2026-04-19 16:38 43.29484 -80.34131 1666 ft 79 kts 353°
2026-04-19 16:39 43.30020 -80.34061 1665 ft 76 kts 352°
2026-04-19 16:39 43.30541 -80.33979 1643 ft 74 kts 349°
2026-04-19 16:39 43.31076 -80.33898 1647 ft 82 kts 350°
2026-04-19 16:39 43.31676 -80.33809 1653 ft 89 kts 353°
2026-04-19 16:40 43.32311 -80.33777 1640 ft 92 kts 349°
2026-04-19 16:40 43.32957 -80.33762 1621 ft 93 kts 351°
2026-04-19 16:40 43.33612 -80.33758 1603 ft 93 kts 350°
2026-04-19 16:40 43.34253 -80.33758 1598 ft 91 kts 348°
2026-04-19 16:41 43.34889 -80.33750 1601 ft 91 kts 351°
2026-04-19 16:41 43.35518 -80.33754 1613 ft 90 kts 347°
2026-04-19 16:41 43.36144 -80.33751 1593 ft 91 kts 349°
2026-04-19 16:41 43.36791 -80.33748 1568 ft 93 kts 352°
2026-04-19 16:42 43.37439 -80.33763 1555 ft 91 kts 343°
2026-04-19 16:42 43.38076 -80.33827 1551 ft 91 kts 346°
2026-04-19 16:42 43.38694 -80.33930 1558 ft 91 kts 345°
2026-04-19 16:42 43.39338 -80.33968 1553 ft 94 kts 358°
2026-04-19 16:43 43.39942 -80.33538 1541 ft 103 kts 37°
2026-04-19 16:43 43.40424 -80.32790 1540 ft 107 kts 43°
2026-04-19 16:43 43.40870 -80.31963 1542 ft 107 kts 47°
2026-04-19 16:43 43.41275 -80.31090 1545 ft 109 kts 50°
2026-04-19 16:44 43.41664 -80.30201 1541 ft 109 kts 56°
2026-04-19 16:44 43.42049 -80.29305 1538 ft 109 kts 51°
2026-04-19 16:44 43.42426 -80.28417 1542 ft 108 kts 54°
2026-04-19 16:44 43.42802 -80.27512 1544 ft 108 kts 54°
2026-04-19 16:45 43.43173 -80.26613 1532 ft 110 kts 53°
2026-04-19 16:45 43.43606 -80.25778 1540 ft 103 kts 23°
2026-04-19 16:45 43.44233 -80.25548 1546 ft 88 kts 342°
2026-04-19 16:45 43.44828 -80.25709 1543 ft 86 kts 333°
2026-04-19 16:46 43.45408 -80.25931 1542 ft 87 kts 333°
2026-04-19 16:46 43.45996 -80.26165 1543 ft 87 kts 331°
2026-04-19 16:46 43.46579 -80.26411 1539 ft 87 kts 332°
2026-04-19 16:46 43.47139 -80.26684 1535 ft 86 kts 331°
2026-04-19 16:47 43.47697 -80.26980 1514 ft 86 kts 328°
2026-04-19 16:47 43.48221 -80.27361 1489 ft 85 kts 322°
2026-04-19 16:47 43.48613 -80.27908 1473 ft 78 kts 285°
2026-04-19 16:47 43.48658 -80.28641 1432 ft 78 kts 269°
2026-04-19 16:48 43.48581 -80.29379 1363 ft 78 kts 252°
2026-04-19 16:48 43.48386 -80.30067 1317 ft 75 kts 261°
2026-04-19 16:48 43.48356 -80.30775 1305 ft 68 kts 272°
2026-04-19 16:48 43.48346 -80.31365 1343 ft 61 kts 264°
2026-04-19 16:49 43.48175 -80.31928 1338 ft 67 kts 244°
2026-04-19 16:49 43.47916 -80.32483 1349 ft 69 kts 245°
2026-04-19 16:49 43.47684 -80.33056 1347 ft 67 kts 249°
2026-04-19 16:49 43.47504 -80.33642 1351 ft 64 kts 254°
2026-04-19 16:50 43.47365 -80.34237 1342 ft 67 kts 253°
2026-04-19 16:50 43.47154 -80.34832 1299 ft 70 kts 248°
2026-04-19 16:50 43.46935 -80.35428 1265 ft 68 kts 250°
2026-04-19 16:50 43.46772 -80.36027 1177 ft 67 kts 249°
2026-04-19 16:51 43.46601 -80.36546 1102 ft 53 kts 252°
2026-04-19 16:51 43.46462 -80.36974 1057 ft 43 kts 250°
2026-04-19 16:51 43.46355 -80.37207 1045 ft 0 kts 183°
2026-04-19 16:51 43.46336 -80.37175 1044 ft 14 kts 150°
2026-04-19 16:52 43.46254 -80.37193 1044 ft 9 kts 199°
2026-04-19 16:52 43.46202 -80.37267 1043 ft 13 kts 243°
2026-04-19 16:52 43.46163 -80.37394 1041 ft 13 kts 245°